1498708801.15,18314,18.25,73154.3,7.77,6.61,6.75,0,*70
1498708802.38,18315,18.25,73160.5,7.77,6.97,7.23,0,*7A
1498708803.6,18316,18.25,73176.3,7.77,6.87,7.05,0,*7C
1498708804.8,18317,18.25,73172.3,7.79,7.11,7.33,0,*78
1498708806.02,18318,18.25,73164.3,7.79,6.91,7.11,0,*7E
1498708807.25,18319,18.25,73164.5,7.81,7.15,7.27,0,*70
1498708808.43,18320,18.25,73164.5,7.81,6.83,7.01,0,*70
1498708809.63,18321,18.25,73162.8,7.83,7.37,7.51,0,*78
1498708810.84,18322,18.25,73190.5,7.83,7.29,7.51,0,*74
1498708812.07,18323,18.25,73176.8,7.83,7.59,7.69,0,*79
1498708813.29,18324,18.25,73168.0,7.85,6.53,6.73,0,*79
1498708814.53,18325,18.25,73170.3,7.85,6.35,6.53,0,*7A
1498708815.71,18326,18.25,73156.8,7.85,6.83,6.97,0,*7C
1498708816.94,18327,18.25,73172.0,7.85,7.15,7.23,0,*7D
1498708818.15,18328,18.25,73176.3,7.85,7.09,7.19,0,*76
1498708819.33,18329,18.25,73166.8,7.85,7.29,7.45,0,*7C
1498708820.54,18330,18.25,73152.0,7.85,7.09,7.19,0,*7F
1498708821.72,18331,18.25,73150.8,7.85,7.33,7.51,0,*7B
1498708822.96,18332,18.25,73164.8,7.87,7.45,7.61,0,*78
1498708824.2,18333,18.25,73166.0,7.87,7.55,7.73,0,*7B
1498708825.43,18334,18.25,73178.5,7.87,7.23,7.41,0,*7C
1498708826.64,18335,18.25,73154.0,7.93,7.23,7.37,0,*79
1498708827.85,18336,18.25,73168.5,7.89,6.29,6.39,0,*75
1498708829.06,18337,18.25,73164.8,7.89,6.87,6.97,0,*74
1498708830.29,18338,18.25,73176.3,7.89,6.57,6.65,0,*7B
1498708831.5,18339,18.25,73166.3,7.89,6.79,6.87,0,*7A
1498708832.7,18340,18.25,73164.8,7.89,6.07,6.17,0,*74
1498708833.92,18341,18.25,73166.0,7.89,6.29,6.47,0,*7C
1498708835.12,18342,18.25,73138.8,7.85,6.17,6.29,0,*76
1498708836.33,18343,18.25,73162.5,7.85,5.95,6.17,0,*73
1498708837.55,18344,18.25,73158.5,7.85,6.25,6.51,0,*7E
1498708838.75,18345,18.25,73156.8,7.85,6.07,6.43,0,*7C
1498708840.01,18346,18.25,73160.0,7.83,5.89,6.47,0,*78
1498708841.27,18347,18.25,73156.8,7.83,6.39,6.91,0,*7A
1498708842.5,18348,18.25,73148.5,7.83,6.51,7.01,0,*73
1498708843.72,18349,18.25,73156.5,7.83,6.47,6.83,0,*7E
1498708844.95,18350,18.25,73158.8,7.83,6.21,6.61,0,*7A
1498708846.18,18351,18.25,73134.5,7.83,6.83,7.15,0,*71
1498708847.38,18352,18.25,73148.5,7.85,6.93,7.23,0,*70
1498708848.59,18353,18.25,73152.0,7.85,6.75,7.19,0,*70
1498708849.79,18354,18.25,73154.3,7.85,6.75,7.19,0,*77
1498708851.0,18355,18.25,73152.3,7.87,6.93,7.33,0,*74
1498708852.23,18356,18.25,73140.8,7.87,6.07,6.65,0,*78
1498708853.45,18357,18.25,73134.3,7.85,5.55,6.43,0,*7B
1498708854.66,18358,18.25,73132.8,7.85,6.03,6.73,0,*77
1498708855.87,18359,18.25,73152.0,7.85,6.35,7.09,0,*7F
1498708857.11,18360,18.25,73158.0,7.87,6.61,7.55,0,*7F
1498708858.31,18361,18.25,73158.8,7.85,6.07,7.19,0,*74
1498708859.54,18362,18.25,73152.3,7.89,5.73,6.69,0,*7D
1498708860.77,18363,18.25,73132.8,7.87,5.93,6.93,0,*79
1498708861.96,18364,18.25,73140.0,7.85,5.27,6.29,0,*72
1498708863.14,18365,18.25,73128.5,7.85,5.45,6.25,0,*7B
1498708864.36,18366,18.25,73146.0,7.85,5.81,6.73,0,*73
1498708865.57,18367,18.25,73146.5,7.85,5.85,6.75,0,*70
1498708866.74,18368,18.25,73128.3,7.85,5.49,6.29,0,*76
1498708867.94,18369,18.25,73134.3,7.85,5.59,6.39,0,*77
1498708869.14,18370,18.25,73140.3,7.83,5.45,6.33,0,*7E
1498708870.34,18371,18.25,73148.8,7.81,5.93,6.79,0,*78
1498708871.55,18372,18.25,73166.0,7.83,6.11,6.93,0,*74
1498708872.78,18373,18.25,73134.5,7.83,6.03,6.91,0,*74
1498708874.01,18374,18.25,73132.0,7.83,6.39,7.37,0,*77
1498708875.25,18375,18.25,73116.5,7.83,6.93,7.61,0,*75
1498708876.48,18376,18.25,73126.0,7.85,7.15,7.73,0,*7C
1498708877.72,18377,18.25,73126.5,7.85,7.15,7.61,0,*7E
1498708878.9,18378,18.25,73142.3,7.85,7.05,7.41,0,*72
1498708880.09,18379,18.25,73152.5,7.85,7.05,7.29,0,*7D
1498708881.31,18380,18.25,73158.0,7.85,7.29,7.73,0,*7A
1498708882.54,18381,18.25,73158.8,7.87,7.55,7.87,0,*79
1498708883.74,18382,18.25,73160.0,7.89,7.37,7.87,0,*70
1498708884.92,18383,18.25,73160.8,7.93,7.37,7.79,0,*7B
1498708886.11,18384,18.25,73162.0,7.97,7.55,8.01,0,*7C
1498708887.34,18385,18.25,73156.0,7.95,7.69,8.05,0,*74
1498708888.55,18386,18.25,73156.8,7.93,7.61,8.09,0,*75
1498708889.73,18387,18.25,73154.3,7.97,7.41,8.09,0,*72
1498708890.96,18388,18.25,73148.5,7.97,6.69,7.61,0,*77
1498708892.19,18389,18.25,73146.0,7.97,6.87,7.83,0,*7A
1498708893.43,18390,18.25,73148.8,7.97,6.73,7.61,0,*75
1498708894.64,18391,18.25,73142.8,7.97,6.97,7.87,0,*76
1498708895.87,18392,18.25,73152.0,7.97,7.19,7.83,0,*76
1498708897.12,18393,18.25,73148.5,7.99,7.19,7.77,0,*72
1498708898.33,18394,18.25,73140.3,8.01,6.73,7.45,0,*77
1498708899.53,18395,18.25,73142.3,7.99,6.07,6.97,0,*75
1498708900.76,18396,18.25,73132.5,7.99,6.47,7.33,0,*7D
1498708901.96,18397,18.25,73110.8,8.01,6.43,7.33,0,*76
1498708903.17,18398,18.25,73114.5,8.01,6.87,7.59,0,*7D
1498708904.39,18399,18.25,73126.3,7.99,7.09,7.83,0,*72
1498708905.6,18400,18.25,73120.3,8.01,6.87,7.59,0,*7B
1498708906.83,18401,18.25,73108.8,8.01,7.23,7.87,0,*76
1498708908.03,18402,18.25,73134.0,7.99,7.51,8.01,0,*7F
1498708909.26,18403,18.25,73132.5,8.03,7.69,8.09,0,*71
1498708910.46,18404,18.25,73128.0,8.05,7.15,7.51,0,*79
1498708911.71,18405,18.25,73142.8,8.03,6.69,7.15,0,*74
1498708912.92,18406,18.25,73142.0,8.03,6.79,7.37,0,*76
1498708914.12,18407,18.25,73144.8,8.03,6.79,7.37,0,*77
1498708915.34,18408,18.25,73140.5,8.03,6.69,7.33,0,*7D
1498708916.57,18409,18.25,73148.3,8.03,6.61,7.33,0,*74
1498708917.8,18410,18.25,73156.0,8.03,6.91,7.51,0,*77
1498708919.01,18411,18.25,73150.3,8.03,6.33,6.93,0,*71
1498708920.22,18412,18.25,73152.8,8.03,6.03,6.79,0,*75
1498708921.47,18413,18.25,73154.3,8.03,6.53,7.27,0,*7B
1498708922.67,18414,18.25,73152.0,8.03,6.11,6.79,0,*70
1498708923.9,18415,18.25,73158.3,8.03,6.03,6.69,0,*73
1498708925.11,18416,18.25,73144.0,7.99,6.29,6.97,0,*75
1498708926.32,18417,18.25,73150.5,8.01,6.91,7.59,0,*7A
1498708927.52,18418,18.25,73154.8,8.01,7.09,7.65,0,*7A
1498708928.72,18419,18.25,73154.5,8.01,6.53,7.09,0,*7F
1498708929.93,18420,18.25,73166.0,8.01,6.57,7.29,0,*73
1498708931.13,18421,18.25,73164.0,8.01,6.11,6.65,0,*79
1498708932.35,18422,18.25,73162.0,7.99,6.47,7.05,0,*70
1498708933.56,18423,18.25,73162.3,8.01,6.69,7.29,0,*7D
1498708934.79,18424,18.25,73144.0,8.01,7.11,7.65,0,*7C
1498708935.99,18425,18.25,73138.3,8.01,6.75,7.23,0,*7C
1498708937.18,18426,18.25,73150.5,8.01,6.53,7.01,0,*7B
1498708938.42,18427,18.25,73148.3,8.01,7.23,7.69,0,*72
1498708939.65,18428,18.25,73154.5,8.01,7.23,7.69,0,*7D
1498708940.86,18429,18.25,73148.0,8.03,7.05,7.41,0,*70
1498708942.06,18430,18.25,73142.5,8.05,6.57,6.93,0,*76
1498708943.26,18431,18.25,73146.8,8.01,6.57,6.97,0,*77
1498708944.52,18432,18.25,73136.0,7.99,6.51,6.87,0,*7D
1498708945.72,18433,18.25,73146.5,8.01,6.83,7.19,0,*7B
1498708946.93,18434,18.25,73150.3,7.99,7.09,7.51,0,*7D
1498708948.14,18435,18.25,73134.5,8.01,6.21,6.65,0,*7F
1498708949.37,18436,18.25,73150.0,7.99,6.65,6.97,0,*7F
1498708950.62,18437,18.25,73138.3,7.99,6.13,6.51,0,*75
1498708951.88,18438,18.25,73134.0,7.99,6.35,6.61,0,*7D
1498708953.08,18439,18.25,73114.0,7.97,6.25,6.53,0,*72
1498708954.3,18440,18.25,73122.3,7.97,6.51,6.75,0,*7B
1498708955.53,18441,18.25,73132.3,7.95,5.89,6.11,0,*7C
1498708956.74,18442,18.25,73136.8,7.97,6.25,6.39,0,*72
1498708957.95,18443,18.25,73140.3,7.95,5.99,6.25,0,*78
1498708959.18,18444,18.25,73144.0,7.95,6.21,6.43,0,*7F
1498708960.39,18445,18.25,73150.0,7.93,6.13,6.25,0,*79
1498708961.58,18446,18.25,73132.8,7.93,6.03,6.21,0,*7F
1498708962.79,18447,18.25,73148.5,7.89,6.33,6.53,0,*73
1498708963.97,18448,18.25,73156.0,7.89,6.07,6.29,0,*76
1498708965.17,18449,18.25,73152.5,7.89,5.89,6.07,0,*7E
1498708966.37,18450,18.25,73154.0,7.89,5.85,6.07,0,*7A
1498708967.58,18451,18.25,73148.0,7.89,5.51,5.71,0,*70
1498708968.78,18452,18.25,73148.8,7.87,5.15,5.45,0,*7A
1498708969.99,18453,18.25,73150.3,7.85,4.67,4.85,0,*70
1498708971.2,18454,18.25,73156.3,7.81,5.19,5.55,0,*77
1498708972.4,18455,18.25,73162.3,7.81,5.45,5.81,0,*76
1498708973.58,18456,18.25,73162.0,7.81,5.63,5.99,0,*78
1498708974.78,18457,18.25,73142.3,7.81,5.71,6.13,0,*7B
1498708975.98,18458,18.25,73126.5,7.81,6.11,6.57,0,*71
1498708977.18,18459,18.25,73136.3,7.79,6.79,7.11,0,*7A
1498708978.38,18460,18.25,73150.3,7.79,7.37,7.69,0,*74
1498708979.61,18461,18.25,73146.8,7.83,7.61,8.05,0,*76
1498708980.79,18462,18.25,73146.3,7.85,7.09,7.55,0,*77
1498708981.98,18463,18.25,73148.5,7.85,7.09,7.51,0,*72
1498708983.18,18464,18.25,73154.5,7.85,7.45,7.87,0,*76
1498708984.44,18465,18.25,73152.5,7.87,7.61,7.83,0,*77
1498708985.65,18466,18.25,73154.8,7.87,7.33,7.55,0,*78
1498708986.9,18467,18.25,73150.3,7.87,7.65,7.87,0,*75
1498708988.1,18468,18.25,73154.3,7.89,7.65,7.79,0,*75
1498708989.34,18469,18.25,73152.8,7.89,6.87,7.11,0,*77
1498708990.54,18470,18.25,73158.3,7.89,7.11,7.45,0,*70
1498708991.74,18471,18.25,73158.5,7.89,6.57,7.01,0,*72
1498708992.97,18472,18.25,73156.8,7.93,6.69,7.11,0,*76
1498708994.17,18473,18.25,73154.0,7.93,6.83,7.23,0,*72
1498708995.38,18474,18.25,73152.3,7.93,7.01,7.27,0,*7A
1498708996.56,18475,18.25,73158.3,7.93,7.37,7.51,0,*7F
1498708997.76,18476,18.25,73158.5,7.89,6.75,6.91,0,*7D
1498708998.95,18477,18.25,73160.3,7.89,6.79,6.97,0,*76
1498709000.15,18478,18.25,73158.3,7.93,7.23,7.41,0,*76
1498709001.36,18479,18.25,73158.5,7.89,7.23,7.55,0,*79
1498709002.57,18480,18.25,73158.3,7.93,7.11,7.51,0,*71
1498709003.78,18481,18.25,73148.5,7.93,6.43,6.83,0,*78
1498709004.99,18482,18.25,73154.3,7.93,6.35,6.83,0,*7A
1498709006.2,18483,18.25,73148.0,7.93,6.35,6.79,0,*7E
1498709007.44,18484,18.25,73128.0,7.93,5.89,6.43,0,*74
1498709008.65,18485,18.25,73122.5,7.89,5.95,6.47,0,*77
1498709009.82,18486,18.25,73128.5,7.89,5.29,5.99,0,*73
1498709011.0,18487,18.31,73120.0,7.89,5.49,6.21,0,*74
1498709012.17,18488,18.25,73132.8,7.89,5.29,6.11,0,*7E
1498709013.4,18489,18.25,73120.3,7.89,4.79,5.73,0,*7C
1498709014.61,18490,18.25,73120.5,7.87,4.07,5.15,0,*73
1498709015.84,18491,18.25,73128.5,7.85,4.63,5.73,0,*72
1498709017.05,18492,18.25,73130.5,7.85,4.45,5.55,0,*71
1498709018.23,18493,18.25,73134.5,7.81,4.41,5.71,0,*76
1498709019.46,18494,18.31,73138.5,7.81,4.75,5.81,0,*79
1498709020.64,18495,18.25,73132.5,7.81,4.85,6.03,0,*7E
1498709021.84,18496,18.25,73130.3,7.81,5.07,6.13,0,*77
1498709023.05,18497,18.25,73132.8,7.81,4.81,5.93,0,*72
1498709024.23,18498,18.25,73132.0,7.81,4.85,5.99,0,*73
1498709025.46,18499,18.25,73124.8,7.77,4.33,5.55,0,*76
1498709026.66,18500,18.25,73134.0,7.77,4.23,5.49,0,*7B
1498709027.87,18501,18.25,73134.5,7.79,3.89,5.05,0,*7B
1498709029.07,18502,18.25,73132.0,7.77,4.23,5.37,0,*70
1498709030.25,18503,18.25,73140.8,7.75,4.57,5.71,0,*72
1498709031.42,18504,18.25,73144.3,7.75,4.57,5.63,0,*76
1498709032.62,18505,18.25,73148.5,7.73,4.53,5.71,0,*76
1498709033.85,18506,18.25,73148.0,7.75,5.01,6.17,0,*76
1498709035.02,18507,18.25,73154.8,7.75,4.33,5.45,0,*73
1498709036.22,18508,18.25,73156.8,7.73,4.19,5.41,0,*76
1498709037.44,18509,18.25,73158.0,7.73,4.85,5.93,0,*7D
1498709038.66,18510,18.25,73150.3,7.73,5.11,6.35,0,*76
1498709039.91,18511,18.25,73146.0,7.73,4.71,5.93,0,*7F
1498709041.09,18512,18.25,73140.5,7.71,3.89,5.29,0,*7F
1498709042.32,18513,18.25,73144.3,7.71,3.33,4.71,0,*73
1498709043.52,18514,18.25,73138.5,7.67,2.81,4.23,0,*7C
1498709044.71,18515,18.25,73134.8,7.67,3.53,4.81,0,*7B
1498709045.92,18516,18.31,73128.8,7.65,4.07,5.37,0,*70
1498709047.1,18517,18.25,73130.3,7.63,3.93,5.23,0,*78
1498709048.3,18518,18.25,73128.8,7.63,3.37,4.81,0,*70
1498709049.47,18519,18.25,73132.5,7.63,3.59,4.89,0,*71
1498709050.68,18520,18.25,73140.3,7.63,3.59,4.93,0,*70
1498709051.91,18521,18.25,73124.5,7.61,4.05,5.41,0,*73
1498709053.09,18522,18.25,73126.0,7.59,4.49,5.67,0,*77
1498709054.32,18523,18.31,73144.3,7.61,4.53,5.77,0,*77
1498709055.52,18524,18.31,73140.0,7.59,4.75,6.03,0,*7F
1498709056.7,18525,18.25,73132.8,7.59,4.49,5.71,0,*77
1498709057.9,18526,18.25,73130.8,7.59,4.67,5.99,0,*7E
1498709059.08,18527,18.25,73136.0,7.59,4.19,5.49,0,*7B
1498709060.25,18528,18.25,73136.0,7.59,4.19,5.45,0,*78
1498709061.44,18529,18.25,73130.5,7.59,3.89,5.07,0,*71
1498709062.62,18530,18.25,73138.8,7.59,4.27,5.45,0,*7C
1498709063.82,18531,18.31,73134.3,7.59,3.97,5.33,0,*70
1498709065.05,18532,18.25,73134.8,7.57,4.37,5.55,0,*70
1498709066.28,18533,18.31,73138.5,7.57,4.33,5.55,0,*75
1498709067.53,18534,18.31,73132.3,7.57,5.27,6.47,0,*76
1498709068.73,18535,18.25,73110.8,7.59,5.41,6.39,0,*70
1498709069.94,18536,18.25,73116.3,7.59,6.35,7.37,0,*7C
1498709071.15,18537,18.25,73138.8,7.59,6.25,7.19,0,*70
1498709072.36,18538,18.25,73138.8,7.59,6.35,7.29,0,*7D
1498709073.57,18539,18.31,73148.3,7.61,6.25,7.05,0,*78
1498709074.82,18540,18.25,73148.0,7.61,6.69,7.47,0,*78
1498709076.02,18541,18.25,73140.8,7.65,6.75,7.41,0,*76
1498709077.27,18542,18.25,73142.0,7.65,7.19,7.69,0,*74
1498709078.5,18543,18.25,73140.8,7.65,6.83,7.61,0,*7F
1498709079.68,18544,18.25,73142.3,7.67,6.79,7.59,0,*74
1498709080.91,18545,18.25,73134.8,7.71,6.51,7.27,0,*71
1498709082.14,18546,18.25,73138.8,7.71,6.57,7.19,0,*79
1498709083.33,18547,18.31,73134.8,7.73,7.05,7.41,0,*71
1498709084.55,18548,18.25,73134.0,7.73,7.01,7.19,0,*77
1498709085.77,18549,18.25,73114.3,7.73,7.09,7.15,0,*72
1498709086.95,18550,18.25,73138.5,7.75,7.29,7.33,0,*7A
1498709088.12,18551,18.31,73144.8,7.75,7.45,7.41,0,*74
1498709089.29,18552,18.25,73114.0,7.75,7.05,7.09,0,*7F
1498709090.49,18553,18.25,73112.5,7.77,7.05,7.09,0,*7C
1498709091.69,18554,18.25,73128.8,7.77,7.33,7.51,0,*73
1498709092.9,18555,18.25,73140.8,7.77,7.33,7.55,0,*76
1498709094.12,18556,18.25,73152.5,7.77,7.19,7.33,0,*7D
1498709095.32,18557,18.25,73156.5,7.79,6.79,6.91,0,*7C
1498709096.55,18558,18.25,73156.5,7.79,6.87,7.15,0,*7F
1498709097.75,18559,18.31,73162.5,7.79,7.45,7.69,0,*7A
1498709098.95,18560,18.25,73148.8,7.79,6.97,7.23,0,*70
1498709100.16,18561,18.25,73158.0,7.79,6.29,6.87,0,*7B
1498709101.36,18562,18.31,73134.0,7.79,5.99,6.47,0,*7C
1498709102.56,18563,18.25,73124.3,7.79,6.57,7.01,0,*7F
1498709103.78,18564,18.31,73116.5,7.79,7.27,7.91,0,*77
1498709104.98,18565,18.31,73132.8,7.79,7.65,8.01,0,*76
1498709106.22,18566,18.31,73148.8,7.83,7.29,7.73,0,*72
1498709107.45,18567,18.31,73134.5,7.83,7.37,7.73,0,*7C
1498709108.66,18568,18.25,73116.8,7.85,7.77,8.09,0,*73
1498709109.89,18569,18.25,73134.3,7.87,7.91,8.19,0,*79
1498709111.15,18570,18.25,73124.0,7.87,7.91,8.13,0,*7B
1498709112.36,18571,18.31,73144.8,7.89,7.91,8.01,0,*77
1498709113.6,18572,18.31,73148.5,7.89,8.13,8.37,0,*74
1498709114.82,18573,18.31,73148.0,7.93,8.29,8.59,0,*7F
1498709116.06,18574,18.25,73148.8,7.93,8.37,8.59,0,*77
1498709117.26,18575,18.25,73150.5,7.93,8.09,8.47,0,*74
1498709118.52,18576,18.25,73156.5,7.95,7.69,7.95,0,*78
1498709119.73,18577,18.25,73154.8,7.97,7.29,7.73,0,*77
1498709120.95,18578,18.31,73156.8,7.97,7.55,7.95,0,*7B
1498709122.18,18579,18.31,73144.0,7.95,7.23,7.51,0,*71
1498709123.41,18580,18.25,73142.3,7.97,6.47,6.73,0,*77
1498709124.65,18581,18.31,73130.8,7.97,6.13,6.51,0,*77
1498709125.88,18582,18.25,73124.5,7.95,6.51,6.83,0,*7F
1498709127.11,18583,18.31,73132.8,7.95,6.83,7.11,0,*7B
1498709128.33,18584,18.25,73134.5,7.97,6.61,6.73,0,*77
1498709129.56,18585,18.31,73140.5,7.95,6.73,7.05,0,*77
1498709130.77,18586,18.31,73148.0,7.97,7.11,7.37,0,*72
1498709132.0,18587,18.25,73146.0,7.97,6.87,7.19,0,*71
1498709133.21,18588,18.31,73150.3,7.97,7.29,7.73,0,*77
1498709134.44,18589,18.31,73148.0,7.95,6.83,7.27,0,*74
1498709135.65,18590,18.31,73152.8,7.97,7.65,8.01,0,*7C
1498709136.85,18591,18.31,73140.3,7.97,7.65,8.09,0,*75
1498709138.08,18592,18.31,73134.8,7.97,7.83,8.13,0,*75
1498709139.31,18593,18.31,73156.0,8.01,7.91,8.33,0,*75
1498709140.51,18594,18.31,73150.0,8.01,8.01,8.47,0,*77
1498709141.74,18595,18.31,73150.0,8.03,7.11,7.51,0,*72
1498709143.0,18596,18.31,73154.8,8.03,7.23,7.73,0,*70
1498709144.21,18597,18.31,73150.8,8.05,7.61,8.05,0,*7F
1498709145.44,18598,18.31,73140.5,8.03,7.69,8.01,0,*7A
1498709146.61,18599,18.31,73134.8,8.05,7.37,7.79,0,*76
1498709147.88,18600,18.31,73130.3,8.03,6.35,6.91,0,*77
1498709149.11,18601,18.31,73116.3,8.03,6.21,6.73,0,*7F
1498709150.36,18602,18.31,73130.5,8.03,6.57,7.11,0,*78
1498709151.57,18603,18.25,73128.8,8.01,6.69,7.29,0,*7D
1498709152.83,18604,18.31,73134.8,8.03,6.43,6.91,0,*72
1498709154.05,18605,18.31,73134.0,8.03,6.53,7.05,0,*7E
1498709155.28,18606,18.31,73134.5,8.03,6.35,7.01,0,*79
1498709156.51,18607,18.31,73136.5,8.03,6.79,7.27,0,*74
1498709157.72,18608,18.31,73140.8,8.01,7.11,7.55,0,*73
1498709158.9,18609,18.31,73138.8,8.01,7.09,7.59,0,*77
1498709160.08,18610,18.31,73146.8,8.01,6.79,7.29,0,*7E
1498709161.28,18611,18.31,73160.8,8.01,5.99,6.39,0,*72
1498709162.49,18612,18.31,73158.5,8.01,6.51,7.09,0,*74
1498709163.67,18613,18.31,73166.0,8.01,7.01,7.55,0,*78
1498709164.87,18614,18.31,73160.5,8.01,6.35,7.01,0,*78
1498709166.11,18615,18.31,73168.0,8.01,7.19,7.69,0,*78
1498709167.3,18616,18.31,73172.8,8.01,7.01,7.65,0,*7E
1498709168.51,18617,18.31,73172.8,8.01,6.87,7.45,0,*72
1498709169.73,18618,18.31,73178.5,8.01,5.89,6.65,0,*73
1498709170.94,18619,18.25,73160.3,8.01,6.65,7.37,0,*75
1498709172.15,18620,18.31,73162.3,8.01,6.57,7.45,0,*7B
1498709173.38,18621,18.31,73174.3,8.03,6.69,7.51,0,*70
1498709174.6,18622,18.31,73172.0,8.03,6.13,7.01,0,*7B
1498709175.81,18623,18.31,73178.5,8.01,5.99,6.87,0,*76
1498709177.03,18624,18.31,73184.0,8.01,5.73,6.65,0,*79
1498709178.24,18625,18.31,73184.3,8.01,6.51,7.45,0,*78
1498709179.47,18626,18.31,73180.3,8.01,6.69,7.65,0,*72
1498709180.66,18627,18.31,73164.3,8.01,6.33,7.29,0,*74
1498709181.89,18628,18.31,73190.5,8.03,6.21,7.27,0,*74
1498709183.13,18629,18.31,73186.5,8.03,6.47,7.51,0,*74
1498709184.33,18630,18.31,73174.3,8.01,5.41,6.39,0,*74
1498709185.57,18631,18.31,73186.8,7.99,5.27,6.43,0,*76
1498709186.75,18632,18.31,73186.5,8.01,5.29,6.33,0,*72
1498709187.96,18633,18.31,73208.3,7.99,5.45,6.39,0,*7D
1498709189.19,18634,18.31,73200.8,7.99,4.75,5.71,0,*77
1498709190.37,18635,18.31,73188.3,7.97,4.85,5.95,0,*7D
1498709191.57,18636,18.31,73192.3,7.97,5.49,6.51,0,*74
1498709192.75,18637,18.31,73214.8,7.97,5.95,7.09,0,*78
1498709193.98,18638,18.31,73192.0,7.97,4.63,5.81,0,*7D
1498709195.22,18639,18.31,73122.0,7.95,4.37,5.55,0,*76
1498709196.43,18640,18.31,73142.8,7.95,5.19,6.33,0,*76
1498709197.66,18641,18.31,73156.3,7.95,6.25,7.23,0,*7B
1498709198.86,18642,18.31,73162.5,7.97,6.39,7.33,0,*76
1498709200.07,18643,18.31,73154.0,7.97,7.05,7.83,0,*72
1498709201.28,18644,18.31,73170.0,7.97,6.93,7.73,0,*74
1498709202.49,18645,18.31,73150.3,7.97,7.09,7.83,0,*78
1498709203.72,18646,18.31,73136.3,7.97,6.87,7.65,0,*74
1498709204.92,18647,18.31,73144.8,7.97,7.09,7.65,0,*72
1498709206.15,18648,18.31,73156.8,8.03,6.91,7.41,0,*79
1498709207.33,18649,18.31,73170.5,8.01,6.75,7.29,0,*7E
1498709208.57,18650,18.31,73182.0,7.99,6.51,6.93,0,*7E
1498709209.79,18651,18.31,73168.5,7.99,5.85,6.29,0,*74
1498709211.01,18652,18.31,73176.5,7.99,5.95,6.61,0,*7A
1498709212.24,18653,18.31,73138.5,7.99,5.05,5.59,0,*7A
1498709213.47,18654,18.31,73154.8,7.99,4.41,5.27,0,*75
1498709214.67,18655,18.31,73136.3,7.97,4.67,5.49,0,*76
1498709215.9,18656,18.31,73136.5,7.95,4.75,5.41,0,*7C
1498709217.14,18657,18.31,73146.8,7.93,4.93,5.55,0,*76
1498709218.35,18658,18.31,73148.3,7.89,4.93,5.59,0,*7E
1498709219.58,18659,18.31,73150.3,7.87,5.33,5.93,0,*7C
1498709220.78,18660,18.31,73144.0,7.89,5.63,6.17,0,*72
1498709222.01,18661,18.31,73150.8,7.89,5.77,6.43,0,*77
1498709223.21,18662,18.31,73148.5,7.89,5.73,6.29,0,*7C
1498709224.41,18663,18.31,73144.0,7.85,5.71,6.17,0,*7E
1498709225.67,18664,18.31,73146.0,7.87,5.85,6.39,0,*7C
1498709226.85,18665,18.31,73140.3,7.89,6.29,6.75,0,*7E
1498709228.11,18666,18.31,73124.5,7.87,6.13,6.69,0,*77
1498709229.33,18667,18.31,73124.0,7.89,7.11,7.47,0,*76
1498709230.57,18668,18.31,73140.3,7.87,7.19,7.51,0,*78
1498709231.81,18669,18.31,73158.0,7.89,7.23,7.69,0,*75
1498709233.03,18670,18.31,73160.8,7.89,6.91,7.47,0,*79
1498709234.27,18671,18.31,73154.5,7.93,6.47,7.11,0,*7B
1498709235.51,18672,18.31,73148.3,7.93,6.51,7.23,0,*7E
1498709236.69,18673,18.31,73134.3,7.93,6.33,7.01,0,*7B
1498709237.87,18674,18.31,73128.0,7.93,6.79,7.51,0,*77
1498709239.06,18675,18.31,73134.5,7.93,6.79,7.51,0,*76
1498709240.26,18676,18.31,73140.3,7.95,7.01,7.79,0,*77
1498709241.52,18677,18.31,73148.5,7.95,6.73,7.61,0,*7B
1498709242.76,18678,18.31,73158.0,7.95,6.57,7.51,0,*71
1498709243.99,18679,18.31,73152.5,7.95,6.43,7.37,0,*75
1498709245.23,18680,18.31,73154.8,7.95,6.13,7.29,0,*79
1498709246.44,18681,18.31,73148.3,7.97,5.95,7.27,0,*79
1498709247.65,18682,18.31,73144.8,7.97,5.95,7.27,0,*7A
1498709248.84,18683,18.31,73138.0,7.97,6.29,7.51,0,*7E
1498709250.1,18684,18.31,73124.3,7.99,6.47,7.73,0,*7F
1498709251.3,18685,18.31,73126.0,8.01,6.91,8.05,0,*75
1498709252.51,18686,18.31,73132.8,7.99,7.05,8.01,0,*70
1498709253.69,18687,18.31,73154.5,8.01,7.37,8.15,0,*7B
1498709254.91,18688,18.31,73168.8,8.01,7.69,8.37,0,*7F
1498709256.14,18689,18.31,73164.0,8.05,7.61,8.41,0,*73
1498709257.32,18690,18.31,73146.8,8.05,7.79,8.61,0,*70
1498709258.52,18691,18.31,73146.3,8.05,7.95,8.61,0,*73
1498709259.75,18692,18.31,73162.0,8.07,8.23,8.75,0,*75
1498709260.95,18693,18.31,73166.5,8.11,8.23,8.65,0,*72
1498709262.18,18694,18.31,73156.8,8.11,7.09,7.69,0,*71
1498709263.4,18695,18.31,73154.3,8.15,6.57,7.23,0,*70
1498709264.63,18696,18.31,73152.5,8.11,6.61,7.09,0,*7A
1498709265.85,18697,18.31,73144.0,8.11,7.33,7.87,0,*7B
1498709267.05,18698,18.31,73138.8,8.15,7.69,8.19,0,*77
1498709268.27,18699,18.31,73146.0,8.11,7.47,7.97,0,*77
1498709269.5,18700,18.31,73156.3,8.11,7.69,8.09,0,*72
1498709270.72,18701,18.31,73164.3,8.11,6.87,7.33,0,*74
1498709271.92,18702,18.31,73152.3,8.15,6.39,6.97,0,*79
1498709273.12,18703,18.31,73126.5,8.15,6.65,7.37,0,*7A
1498709274.36,18704,18.31,73138.3,8.11,6.97,7.77,0,*70
1498709275.56,18705,18.31,73146.0,8.15,6.83,7.47,0,*73
1498709276.75,18706,18.31,73140.0,8.15,6.69,7.33,0,*77
1498709277.97,18707,18.31,73136.5,8.15,6.69,7.27,0,*73
1498709279.13,18708,18.31,73108.0,8.15,6.83,7.33,0,*7D
1498709280.38,18709,18.31,73104.3,8.11,6.53,7.11,0,*75
1498709281.59,18710,18.31,73124.0,8.17,7.55,8.09,0,*7A
1498709282.79,18711,18.31,73132.3,8.15,7.69,8.19,0,*77
1498709283.96,18712,18.31,73132.3,8.15,7.79,8.19,0,*75
1498709285.2,18713,18.31,73134.0,8.17,7.61,8.15,0,*73
1498709286.37,18714,18.31,73138.3,8.19,7.97,8.45,0,*76
1498709287.58,18715,18.31,73132.8,8.19,8.09,8.51,0,*7A
1498709288.8,18716,18.31,73140.3,8.21,8.01,8.37,0,*7A
1498709290.0,18717,18.31,73128.3,8.21,8.19,8.65,0,*75
1498709291.23,18718,18.31,73134.5,8.21,8.27,8.75,0,*76
1498709292.41,18719,18.31,73146.5,8.23,8.27,8.79,0,*79
1498709293.6,18720,18.31,73148.0,8.27,8.45,8.97,0,*73
1498709294.79,18721,18.31,73146.8,8.27,8.45,8.97,0,*72
1498709296.04,18722,18.31,73138.8,8.29,8.51,8.97,0,*7A
1498709297.23,18723,18.31,73124.5,8.31,8.29,8.79,0,*7D
1498709298.45,18724,18.31,73130.5,8.29,8.29,8.83,0,*76
1498709299.65,18725,18.31,73120.8,8.29,8.05,8.45,0,*73
1498709300.91,18726,18.31,73128.5,8.33,8.13,8.55,0,*7D
1498709302.14,18727,18.31,73132.5,8.33,8.37,8.87,0,*75
1498709303.32,18728,18.31,73130.3,8.35,8.27,8.69,0,*7D
1498709304.52,18729,18.31,73136.8,8.35,8.15,8.47,0,*71
1498709305.75,18730,18.31,73106.8,8.35,8.13,8.41,0,*79
1498709306.92,18731,18.31,73084.3,8.39,7.59,8.09,0,*79
1498709308.09,18732,18.31,73102.0,8.39,7.51,7.97,0,*7A
1498709309.29,18733,18.31,73106.8,8.39,7.77,8.19,0,*76
1498709310.49,18734,18.31,73110.8,8.39,7.19,7.59,0,*72
1498709311.69,18735,18.31,73104.5,8.35,7.47,7.79,0,*76
1498709312.89,18736,18.31,73100.0,8.39,7.69,8.05,0,*71
1498709314.09,18737,18.31,73100.3,8.39,7.41,7.77,0,*70
1498709315.29,18738,18.31,73110.5,8.35,6.79,7.23,0,*78
1498709316.51,18739,18.31,73108.5,8.35,6.69,7.27,0,*7C
1498709317.74,18740,18.31,73112.5,8.35,7.27,7.65,0,*7F
1498709318.96,18741,18.31,73128.5,8.35,6.69,7.11,0,*76
1498709320.19,18742,18.31,73134.0,8.33,7.41,7.77,0,*78
1498709321.39,18743,18.31,73132.8,8.35,8.05,8.37,0,*7B
1498709322.59,18744,18.31,73136.5,8.35,7.91,8.15,0,*7E
1498709323.79,18745,18.31,73140.5,8.35,7.11,7.45,0,*7D
1498709325.01,18746,18.31,73134.5,8.33,6.73,7.01,0,*7D
1498709326.21,18747,18.31,73140.8,8.33,7.09,7.41,0,*74
1498709327.41,18748,18.31,73146.5,8.35,7.59,7.83,0,*76
1498709328.62,18749,18.31,73146.5,8.33,8.19,8.45,0,*7F
1498709329.87,18750,18.31,73142.8,8.33,7.77,7.91,0,*76